Location: Central Falls
(41.8900°N, 71.3929°W)
Time: 12:34:22
(UTC+00:00)

A-11 Canister half - Pass Details

Date: 06 December 2023
Orbit: 1526 x 1682 km, 47.3° (Epoch: 20 February)

Event Time Altitude Azimuth Distance (km) Brightness Sun altitude
Rises 04:11:08 0° 291° (WNW) 4,925 - -69.9°
Reaches altitude 10° 04:14:20 10° 293° (WNW) 3,926 - -70.0°
Maximum altitude 04:24:27 80° 20° (NNE) 1,662 - -70.4°
Drops below altitude 10° 04:34:13 10° 108° (ESE) 3,805 - -70.6°
Sets 04:37:16 0° 110° (ESE) 4,768 - -70.6°
